"Zeitpunkt";"timestamp";"D0";"V0";"V0_max";"T0";"F0";"G0";"S0";"R0";"M0";"T1";"L0";"L0_nn"
"21.03.2024, 00:00";"1710982801";"173";"1";"3";"108";"83";"8";"0";"0";"0";"103";"0";"10022"
"21.03.2024, 00:10";"1710983401";"178";"2";"4";"107";"84";"8";"0";"0";"0";"103";"0";"10022"
"21.03.2024, 00:20";"1710984001";"168";"2";"3";"108";"83";"8";"0";"0";"0";"105";"0";"10022"
"21.03.2024, 00:30";"1710984601";"170";"2";"4";"108";"83";"8";"0";"0";"0";"103";"0";"10022"
"21.03.2024, 00:40";"1710985201";"169";"2";"4";"108";"83";"8";"0";"0";"0";"103";"0";"10022"
"21.03.2024, 00:50";"1710985801";"170";"2";"4";"108";"83";"8";"0";"0";"0";"100";"0";"10022"
"21.03.2024, 01:00";"1710986401";"219";"1";"3";"108";"84";"7";"0";"0";"0";"99";"0";"10027"
"21.03.2024, 01:10";"1710987001";"316";"1";"4";"110";"84";"5";"0";"0";"0";"101";"0";"10027"
"21.03.2024, 01:20";"1710987601";"283";"1";"3";"110";"85";"5";"0";"0";"0";"101";"0";"10027"
"21.03.2024, 01:30";"1710988202";"269";"1";"3";"111";"85";"6";"0";"0";"0";"101";"0";"10027"
"21.03.2024, 01:40";"1710988801";"261";"1";"3";"110";"86";"6";"0";"0";"0";"99";"0";"10027"
"21.03.2024, 01:50";"1710989401";"293";"1";"3";"111";"86";"5";"0";"0";"0";"97";"0";"10027"
"21.03.2024, 02:00";"1710990001";"319";"1";"2";"111";"87";"5";"0";"0";"0";"95";"0";"10029"
"21.03.2024, 02:10";"1710990601";"294";"0";"2";"110";"87";"5";"0";"0";"0";"96";"0";"10029"
"21.03.2024, 02:20";"1710991201";"338";"0";"2";"110";"88";"8";"0";"0";"0";"95";"0";"10029"
"21.03.2024, 02:30";"1710991801";"306";"0";"1";"110";"87";"5";"0";"0";"0";"92";"0";"10029"
"21.03.2024, 02:40";"1710992401";"294";"0";"2";"109";"89";"5";"0";"0";"0";"97";"0";"10029"
"21.03.2024, 02:50";"1710993001";"251";"1";"2";"108";"89";"6";"0";"0";"0";"100";"0";"10029"
"21.03.2024, 03:00";"1710993601";"200";"2";"3";"107";"89";"7";"0";"0";"0";"101";"0";"10031"
"21.03.2024, 03:10";"1710994201";"198";"2";"3";"107";"89";"7";"0";"0";"0";"101";"0";"10031"
"21.03.2024, 03:20";"1710994801";"186";"2";"3";"106";"88";"8";"0";"0";"0";"101";"0";"10031"
"21.03.2024, 03:30";"1710995401";"181";"2";"4";"106";"88";"8";"0";"0";"0";"102";"0";"10031"
"21.03.2024, 03:40";"1710996001";"292";"2";"5";"109";"88";"5";"0";"0";"0";"103";"0";"10031"
"21.03.2024, 03:50";"1710996601";"305";"4";"11";"112";"85";"5";"0";"0";"0";"106";"0";"10031"
"21.03.2024, 04:00";"1710997201";"303";"5";"12";"114";"83";"5";"0";"0";"0";"102";"0";"10041"
"21.03.2024, 04:10";"1710997801";"305";"5";"10";"113";"83";"5";"0";"0";"0";"101";"0";"10041"
"21.03.2024, 04:20";"1710998401";"306";"4";"8";"112";"84";"5";"0";"0";"0";"97";"0";"10041"
"21.03.2024, 04:30";"1710999001";"304";"3";"6";"110";"84";"5";"0";"0";"0";"102";"0";"10041"
"21.03.2024, 04:40";"1710999601";"300";"3";"6";"110";"85";"5";"0";"0";"0";"104";"0";"10041"
"21.03.2024, 04:50";"1711000201";"299";"3";"7";"111";"85";"5";"0";"0";"0";"107";"0";"10041"
"21.03.2024, 05:00";"1711000801";"309";"3";"8";"113";"85";"5";"0";"0";"0";"109";"0";"10048"
"21.03.2024, 05:10";"1711001401";"305";"5";"12";"113";"84";"5";"0";"0";"0";"111";"0";"10048"
"21.03.2024, 05:20";"1711002001";"298";"7";"14";"113";"84";"9";"0";"0";"0";"110";"0";"10048"
"21.03.2024, 05:30";"1711002601";"300";"7";"12";"112";"84";"9";"0";"0";"0";"109";"0";"10048"
"21.03.2024, 05:40";"1711003201";"301";"5";"9";"112";"84";"9";"0";"0";"0";"110";"0";"10048"
"21.03.2024, 05:50";"1711003801";"294";"4";"8";"111";"84";"15";"0";"0";"0";"109";"0";"10048"
"21.03.2024, 06:00";"1711004401";"294";"6";"10";"110";"83";"16";"0";"0";"0";"108";"0";"10055"
"21.03.2024, 06:10";"1711005002";"290";"6";"10";"110";"83";"37";"0";"0";"0";"110";"0";"10055"
"21.03.2024, 06:20";"1711005601";"304";"5";"11";"109";"79";"45";"0";"0";"0";"112";"0";"10055"
"21.03.2024, 06:30";"1711006201";"326";"6";"13";"110";"78";"97";"0";"0";"0";"114";"0";"10055"
"21.03.2024, 06:40";"1711006801";"334";"5";"12";"110";"78";"146";"0";"0";"0";"117";"0";"10055"
"21.03.2024, 06:50";"1711007402";"305";"5";"9";"110";"78";"49";"0";"0";"0";"112";"0";"10055"
"21.03.2024, 07:00";"1711008001";"308";"5";"10";"110";"77";"54";"0";"0";"0";"111";"0";"10062"
"21.03.2024, 07:10";"1711008601";"301";"7";"12";"109";"76";"114";"0";"0";"0";"115";"0";"10062"
"21.03.2024, 07:20";"1711009201";"304";"7";"12";"109";"75";"228";"1";"0";"0";"127";"0";"10062"
"21.03.2024, 07:30";"1711009801";"314";"7";"15";"111";"74";"472";"4";"0";"0";"121";"0";"10062"
"21.03.2024, 07:40";"1711010402";"315";"7";"12";"110";"74";"390";"3";"0";"0";"119";"0";"10062"
"21.03.2024, 07:50";"1711011001";"318";"7";"13";"108";"73";"264";"0";"0";"0";"117";"0";"10062"
"21.03.2024, 08:00";"1711011601";"316";"6";"15";"106";"75";"175";"0";"0";"0";"112";"0";"10073"
"21.03.2024, 08:10";"1711012201";"300";"6";"10";"104";"75";"129";"0";"0";"0";"120";"0";"10073"
"21.03.2024, 08:20";"1711012801";"312";"5";"11";"104";"75";"327";"1";"0";"0";"118";"0";"10073"
"21.03.2024, 08:30";"1711013401";"299";"5";"8";"104";"75";"166";"0";"0";"0";"122";"0";"10073"
"21.03.2024, 08:40";"1711014001";"296";"5";"8";"105";"74";"261";"0";"0";"0";"124";"0";"10073"
"21.03.2024, 08:50";"1711014601";"290";"5";"8";"105";"75";"206";"0";"0";"0";"120";"0";"10073"
"21.03.2024, 09:00";"1711015201";"290";"5";"8";"105";"75";"224";"0";"0";"0";"117";"0";"10078"
"21.03.2024, 09:10";"1711015801";"297";"5";"10";"106";"74";"155";"0";"0";"0";"120";"0";"10078"
"21.03.2024, 09:20";"1711016401";"282";"6";"10";"106";"74";"221";"0";"0";"0";"125";"0";"10078"
"21.03.2024, 09:30";"1711017001";"291";"5";"9";"105";"74";"281";"0";"0";"0";"120";"0";"10078"
"21.03.2024, 09:40";"1711017601";"300";"5";"9";"107";"74";"165";"0";"0";"0";"122";"0";"10078"
"21.03.2024, 09:50";"1711018201";"298";"5";"9";"108";"73";"235";"0";"0";"0";"126";"0";"10078"
"21.03.2024, 10:00";"1711018801";"296";"6";"10";"106";"72";"186";"0";"0";"0";"125";"0";"10085"
"21.03.2024, 10:10";"1711019401";"311";"5";"11";"107";"71";"330";"1";"0";"0";"124";"0";"10085"
"21.03.2024, 10:20";"1711020001";"309";"6";"10";"109";"71";"254";"0";"0";"0";"132";"0";"10085"
"21.03.2024, 10:30";"1711020601";"294";"6";"9";"110";"70";"427";"5";"0";"0";"136";"0";"10085"
"21.03.2024, 10:40";"1711021201";"298";"5";"10";"112";"70";"673";"7";"0";"0";"133";"0";"10085"
"21.03.2024, 10:50";"1711021801";"292";"6";"11";"113";"70";"462";"5";"0";"0";"144";"0";"10085"
"21.03.2024, 11:00";"1711022401";"298";"5";"10";"114";"70";"622";"7";"0";"0";"134";"0";"10088"
"21.03.2024, 11:10";"1711023002";"282";"5";"9";"114";"70";"401";"2";"0";"0";"136";"0";"10088"
"21.03.2024, 11:20";"1711023601";"302";"5";"8";"114";"70";"435";"3";"0";"0";"133";"0";"10088"
"21.03.2024, 11:30";"1711024202";"302";"4";"8";"116";"69";"576";"3";"0";"0";"151";"0";"10088"
"21.03.2024, 11:40";"1711024801";"299";"4";"7";"118";"69";"597";"3";"0";"0";"143";"0";"10088"
"21.03.2024, 11:50";"1711025401";"288";"3";"7";"120";"67";"257";"1";"0";"0";"140";"0";"10088"
"21.03.2024, 12:00";"1711026001";"272";"4";"8";"119";"67";"354";"1";"0";"0";"136";"0";"10088"
"21.03.2024, 12:10";"1711026601";"288";"4";"7";"121";"66";"377";"4";"0";"0";"137";"0";"10088"
"21.03.2024, 12:20";"1711027201";"269";"4";"7";"123";"65";"458";"2";"0";"0";"142";"0";"10088"
"21.03.2024, 12:30";"1711027801";"280";"4";"10";"123";"65";"1,624";"10";"0";"0";"135";"0";"10088"
"21.03.2024, 12:40";"1711028401";"274";"4";"10";"125";"64";"922";"10";"0";"0";"138";"0";"10088"
"21.03.2024, 12:50";"1711029001";"256";"4";"9";"127";"64";"592";"10";"0";"0";"143";"0";"10088"
"21.03.2024, 13:00";"1711029601";"250";"4";"9";"127";"64";"558";"3";"0";"0";"134";"0";"10085"
"21.03.2024, 13:10";"1711030201";"256";"6";"10";"127";"65";"508";"7";"0";"0";"140";"0";"10085"
"21.03.2024, 13:20";"1711030802";"270";"5";"9";"127";"64";"736";"10";"0";"0";"135";"0";"10085"
"21.03.2024, 13:30";"1711031401";"285";"4";"9";"126";"65";"414";"5";"0";"0";"131";"0";"10085"
"21.03.2024, 13:40";"1711032001";"295";"4";"10";"125";"65";"608";"10";"0";"0";"136";"0";"10085"
"21.03.2024, 13:50";"1711032601";"282";"5";"9";"124";"65";"663";"10";"0";"0";"134";"0";"10085"
"21.03.2024, 14:00";"1711033201";"286";"4";"8";"126";"64";"1,264";"10";"0";"0";"135";"0";"10081"
"21.03.2024, 14:10";"1711033801";"261";"5";"9";"126";"65";"480";"10";"0";"0";"131";"0";"10081"
"21.03.2024, 14:20";"1711034401";"288";"4";"9";"125";"66";"602";"10";"0";"0";"129";"0";"10081"
"21.03.2024, 14:30";"1711035002";"289";"5";"10";"124";"66";"411";"4";"0";"0";"128";"0";"10081"
"21.03.2024, 14:40";"1711035601";"266";"4";"7";"127";"66";"840";"8";"0";"0";"127";"0";"10081"
"21.03.2024, 14:50";"1711036201";"229";"4";"9";"128";"63";"1,454";"10";"0";"0";"126";"0";"10081"
"21.03.2024, 15:00";"1711036801";"232";"5";"9";"126";"64";"523";"6";"0";"0";"123";"0";"10078"
"21.03.2024, 15:10";"1711037401";"260";"4";"8";"125";"65";"195";"0";"0";"0";"123";"0";"10078"
"21.03.2024, 15:20";"1711038001";"262";"4";"7";"124";"66";"90";"0";"0";"0";"122";"0";"10078"
"21.03.2024, 15:30";"1711038601";"253";"4";"8";"124";"67";"42";"0";"0";"0";"120";"0";"10078"
"21.03.2024, 15:40";"1711039201";"237";"4";"7";"124";"67";"28";"0";"0";"0";"118";"0";"10078"
"21.03.2024, 15:50";"1711039801";"206";"3";"8";"123";"68";"28";"0";"0";"0";"118";"0";"10078"
"21.03.2024, 16:00";"1711040401";"230";"3";"7";"123";"68";"20";"0";"0";"0";"117";"0";"10078"
"21.03.2024, 16:10";"1711041001";"203";"3";"6";"122";"68";"12";"0";"0";"0";"116";"0";"10078"
"21.03.2024, 16:20";"1711041602";"211";"3";"5";"122";"70";"9";"0";"0";"0";"114";"0";"10078"
"21.03.2024, 16:30";"1711042202";"201";"3";"5";"121";"69";"7";"0";"0";"0";"114";"0";"10078"
"21.03.2024, 16:40";"1711042801";"179";"2";"5";"121";"70";"8";"0";"0";"0";"112";"0";"10078"
"21.03.2024, 16:50";"1711043401";"176";"2";"4";"120";"70";"8";"0";"0";"0";"112";"0";"10078"
"21.03.2024, 17:00";"1711044001";"178";"2";"5";"120";"71";"8";"0";"0";"0";"111";"0";"10076"
"21.03.2024, 17:10";"1711044601";"202";"2";"4";"119";"71";"7";"0";"0";"0";"110";"0";"10076"
"21.03.2024, 17:20";"1711045201";"211";"3";"6";"119";"71";"7";"0";"0";"0";"111";"0";"10076"
"21.03.2024, 17:30";"1711045801";"208";"3";"5";"119";"72";"7";"0";"0";"0";"110";"0";"10076"
"21.03.2024, 17:40";"1711046401";"208";"3";"6";"118";"72";"7";"0";"0";"0";"108";"0";"10076"
"21.03.2024, 17:50";"1711047001";"205";"2";"4";"117";"72";"7";"0";"0";"0";"106";"0";"10076"
"21.03.2024, 18:00";"1711047601";"201";"2";"5";"116";"74";"7";"0";"0";"0";"106";"0";"10078"
"21.03.2024, 18:10";"1711048201";"196";"2";"4";"115";"73";"7";"0";"0";"0";"107";"0";"10078"
"21.03.2024, 18:20";"1711048801";"187";"2";"4";"115";"74";"8";"0";"0";"0";"106";"0";"10078"
"21.03.2024, 18:30";"1711049401";"184";"3";"4";"114";"74";"8";"0";"0";"0";"107";"0";"10078"
"21.03.2024, 18:40";"1711050001";"181";"3";"5";"113";"75";"8";"0";"0";"0";"105";"0";"10078"
"21.03.2024, 18:50";"1711050601";"167";"3";"6";"113";"74";"8";"0";"0";"0";"106";"0";"10078"
"21.03.2024, 19:00";"1711051201";"174";"3";"6";"113";"74";"8";"0";"0";"0";"107";"0";"10073"
"21.03.2024, 19:10";"1711051801";"168";"3";"6";"113";"75";"8";"0";"0";"0";"105";"0";"10073"
"21.03.2024, 19:20";"1711052401";"183";"3";"5";"112";"76";"8";"0";"0";"0";"103";"0";"10073"
"21.03.2024, 19:30";"1711053001";"201";"3";"5";"111";"76";"7";"0";"0";"0";"103";"0";"10073"
"21.03.2024, 19:40";"1711053601";"199";"3";"7";"112";"76";"7";"0";"0";"0";"105";"0";"10073"
"21.03.2024, 19:50";"1711054201";"192";"4";"9";"112";"76";"7";"0";"0";"0";"106";"0";"10073"
"21.03.2024, 20:00";"1711054801";"192";"5";"8";"112";"76";"7";"0";"0";"0";"106";"0";"10071"
"21.03.2024, 20:10";"1711055401";"190";"5";"9";"112";"77";"7";"0";"0";"0";"105";"0";"10071"
"21.03.2024, 20:20";"1711056001";"190";"5";"9";"111";"77";"7";"0";"0";"0";"105";"0";"10071"
"21.03.2024, 20:30";"1711056601";"198";"5";"10";"111";"77";"7";"0";"0";"0";"105";"0";"10071"
"21.03.2024, 20:40";"1711057201";"196";"5";"12";"110";"77";"7";"0";"0";"0";"104";"0";"10071"
"21.03.2024, 20:50";"1711057801";"191";"5";"10";"110";"78";"7";"0";"0";"0";"103";"0";"10071"
"21.03.2024, 21:00";"1711058401";"182";"4";"7";"109";"78";"8";"0";"0";"0";"102";"0";"10066"
"21.03.2024, 21:10";"1711059001";"181";"4";"7";"108";"78";"8";"0";"0";"0";"101";"0";"10066"
"21.03.2024, 21:20";"1711059601";"176";"3";"6";"108";"78";"8";"0";"0";"0";"102";"0";"10066"
"21.03.2024, 21:30";"1711060201";"177";"3";"7";"107";"79";"8";"0";"0";"0";"101";"0";"10066"
"21.03.2024, 21:40";"1711060801";"172";"3";"6";"107";"78";"8";"0";"0";"0";"101";"0";"10066"
"21.03.2024, 21:50";"1711061401";"176";"4";"7";"107";"79";"8";"0";"0";"0";"101";"0";"10066"
"21.03.2024, 22:00";"1711062001";"182";"4";"7";"106";"79";"8";"0";"0";"0";"100";"0";"10062"
"21.03.2024, 22:10";"1711062601";"179";"4";"8";"107";"79";"8";"0";"0";"0";"102";"0";"10062"
"21.03.2024, 22:20";"1711063201";"179";"4";"7";"107";"79";"8";"0";"0";"0";"102";"0";"10062"
"21.03.2024, 22:30";"1711063801";"178";"5";"8";"108";"80";"8";"0";"0";"0";"103";"0";"10062"
"21.03.2024, 22:40";"1711064401";"177";"4";"8";"108";"80";"8";"0";"0";"0";"103";"0";"10062"
"21.03.2024, 22:50";"1711065002";"177";"5";"8";"108";"80";"8";"0";"0";"0";"104";"0";"10062"
"21.03.2024, 23:00";"1711065601";"176";"4";"7";"109";"80";"8";"0";"0";"0";"105";"0";"10057"
"21.03.2024, 23:10";"1711066201";"173";"4";"7";"109";"80";"8";"0";"0";"0";"105";"0";"10057"
"21.03.2024, 23:20";"1711066801";"171";"4";"8";"110";"80";"8";"0";"0";"0";"106";"0";"10057"
"21.03.2024, 23:30";"1711067401";"167";"4";"8";"110";"80";"8";"0";"0";"0";"106";"0";"10057"
"21.03.2024, 23:40";"1711068001";"167";"4";"8";"110";"80";"8";"0";"0";"0";"106";"0";"10057"
"21.03.2024, 23:50";"1711068601";"163";"5";"9";"110";"80";"8";"0";"0";"0";"106";"0";"10057"
"22.03.2024, 00:00";"1711069201";"166";"6";"9";"111";"80";"8";"0";"0";"0";"106";"0";"10050"
"22.03.2024, 00:10";"1711069801";"166";"6";"10";"111";"80";"8";"0";"0";"0";"107";"0";"10050"
"22.03.2024, 00:20";"1711070401";"171";"6";"10";"111";"80";"8";"0";"0";"0";"107";"0";"10050"
"22.03.2024, 00:30";"1711071002";"171";"6";"9";"111";"80";"8";"0";"0";"0";"107";"0";"10050"
"22.03.2024, 00:40";"1711071602";"172";"6";"11";"111";"80";"8";"0";"0";"0";"107";"0";"10050"
"22.03.2024, 00:50";"1711072201";"171";"7";"11";"111";"80";"8";"0";"0";"0";"108";"0";"10050"
"22.03.2024, 01:00";"1711072801";"174";"7";"12";"112";"80";"8";"0";"0";"0";"108";"0";"10041"
"22.03.2024, 01:10";"1711073401";"173";"6";"12";"112";"80";"8";"0";"0";"0";"109";"0";"10041"
"22.03.2024, 01:20";"1711074001";"176";"6";"11";"113";"80";"8";"0";"0";"0";"109";"0";"10041"
"22.03.2024, 01:30";"1711074601";"179";"6";"12";"114";"80";"8";"0";"4";"0";"108";"0";"10041"
"22.03.2024, 01:40";"1711075201";"178";"6";"10";"114";"80";"8";"0";"2";"0";"109";"0";"10041"
"22.03.2024, 01:50";"1711075801";"176";"6";"10";"114";"80";"8";"0";"0";"0";"109";"0";"10041"
"22.03.2024, 02:00";"1711076401";"175";"6";"10";"114";"80";"8";"0";"0";"0";"109";"0";"10034"
"22.03.2024, 02:10";"1711077001";"176";"6";"10";"113";"81";"8";"0";"0";"0";"108";"0";"10034"
"22.03.2024, 02:20";"1711077602";"175";"6";"10";"113";"81";"8";"0";"0";"0";"107";"0";"10034"
"22.03.2024, 02:30";"1711078201";"174";"5";"9";"113";"81";"8";"0";"0";"0";"106";"0";"10034"
"22.03.2024, 02:40";"1711078801";"182";"5";"10";"112";"81";"8";"0";"0";"0";"106";"0";"10034"
"22.03.2024, 02:50";"1711079401";"173";"6";"12";"112";"82";"8";"0";"0";"0";"106";"0";"10034"
"22.03.2024, 03:00";"1711080002";"173";"6";"11";"112";"82";"8";"0";"0";"0";"105";"0";"10027"
"22.03.2024, 03:10";"1711080601";"172";"6";"11";"111";"82";"8";"0";"0";"0";"105";"0";"10027"
"22.03.2024, 03:20";"1711081201";"171";"6";"10";"110";"82";"8";"0";"0";"0";"104";"0";"10027"
"22.03.2024, 03:30";"1711081801";"169";"5";"9";"110";"82";"8";"0";"0";"0";"104";"0";"10027"
"22.03.2024, 03:40";"1711082401";"172";"5";"9";"110";"82";"8";"0";"0";"0";"105";"0";"10027"
"22.03.2024, 03:50";"1711083001";"172";"5";"9";"111";"82";"8";"0";"0";"0";"106";"0";"10027"
"22.03.2024, 04:00";"1711083601";"176";"5";"10";"112";"82";"8";"0";"0";"0";"107";"0";"10020"
"22.03.2024, 04:10";"1711084201";"180";"6";"12";"112";"81";"8";"0";"0";"0";"107";"0";"10020"
"22.03.2024, 04:20";"1711084801";"181";"6";"11";"112";"81";"8";"0";"0";"0";"107";"0";"10020"
"22.03.2024, 04:30";"1711085401";"186";"6";"12";"112";"82";"7";"0";"0";"0";"106";"0";"10020"
"22.03.2024, 04:40";"1711086001";"189";"7";"13";"113";"81";"7";"0";"0";"0";"108";"0";"10020"
"22.03.2024, 04:50";"1711086601";"185";"6";"12";"113";"81";"8";"0";"0";"0";"109";"0";"10020"
"22.03.2024, 05:00";"1711087202";"183";"7";"12";"114";"80";"14";"0";"0";"0";"110";"0";"10017"
"22.03.2024, 05:10";"1711087801";"180";"7";"11";"114";"80";"17";"0";"0";"0";"112";"0";"10017"
"22.03.2024, 05:20";"1711088401";"182";"7";"13";"114";"80";"27";"0";"0";"0";"112";"0";"10017"
"22.03.2024, 05:30";"1711089001";"183";"6";"10";"115";"80";"35";"0";"0";"0";"113";"0";"10017"
"22.03.2024, 05:40";"1711089601";"183";"5";"9";"116";"79";"59";"0";"0";"0";"114";"0";"10017"
"22.03.2024, 05:50";"1711090201";"177";"5";"10";"117";"79";"117";"0";"0";"0";"115";"0";"10017"
"22.03.2024, 06:00";"1711090801";"181";"5";"9";"119";"79";"163";"0";"0";"0";"118";"0";"10013"
"22.03.2024, 06:10";"1711091401";"184";"6";"9";"120";"78";"214";"0";"0";"0";"123";"0";"10013"
"22.03.2024, 06:20";"1711092001";"190";"6";"11";"124";"76";"455";"6";"0";"0";"128";"0";"10013"
"22.03.2024, 06:30";"1711092601";"196";"5";"9";"127";"74";"575";"10";"0";"0";"132";"0";"10013"
"22.03.2024, 06:40";"1711093202";"201";"7";"15";"130";"74";"375";"0";"0";"0";"134";"0";"10013"
"22.03.2024, 06:50";"1711093801";"197";"6";"11";"132";"72";"255";"0";"0";"0";"134";"0";"10013"
"22.03.2024, 07:00";"1711094401";"197";"7";"14";"133";"71";"177";"0";"0";"0";"136";"0";"10013"
"22.03.2024, 07:10";"1711095001";"208";"8";"17";"135";"70";"161";"0";"0";"0";"145";"0";"10013"
"22.03.2024, 07:20";"1711095601";"216";"7";"14";"137";"69";"595";"7";"0";"0";"141";"0";"10013"
"22.03.2024, 07:30";"1711096201";"209";"7";"17";"137";"64";"350";"3";"0";"0";"139";"0";"10013"
"22.03.2024, 07:40";"1711096801";"215";"8";"18";"138";"64";"216";"0";"0";"0";"143";"0";"10013"
"22.03.2024, 07:50";"1711097401";"215";"8";"15";"139";"63";"377";"4";"0";"0";"150";"0";"10013"
"22.03.2024, 08:00";"1711098001";"216";"9";"17";"139";"63";"488";"8";"0";"0";"144";"0";"10009"
"22.03.2024, 08:10";"1711098601";"211";"8";"17";"140";"63";"480";"6";"0";"0";"146";"0";"10009"
"22.03.2024, 08:20";"1711099201";"214";"8";"15";"140";"61";"560";"9";"0";"0";"158";"0";"10009"
"22.03.2024, 08:30";"1711099801";"219";"9";"16";"144";"62";"1,306";"10";"0";"0";"166";"0";"10009"
"22.03.2024, 08:40";"1711100401";"226";"9";"18";"146";"60";"1,443";"10";"0";"0";"158";"0";"10009"
"22.03.2024, 08:50";"1711101001";"228";"9";"17";"147";"61";"632";"6";"0";"0";"154";"0";"10009"
"22.03.2024, 09:00";"1711101601";"221";"8";"16";"146";"61";"388";"4";"0";"0";"152";"0";"10005"
"22.03.2024, 09:10";"1711102201";"210";"8";"15";"145";"62";"386";"2";"0";"0";"152";"0";"10005"
"22.03.2024, 09:20";"1711102802";"222";"7";"13";"146";"62";"420";"7";"0";"0";"159";"0";"10005"
"22.03.2024, 09:30";"1711103401";"229";"8";"16";"147";"63";"377";"2";"0";"0";"158";"0";"10005"
"22.03.2024, 09:40";"1711104001";"227";"6";"12";"148";"62";"262";"0";"0";"0";"156";"0";"10005"
"22.03.2024, 09:50";"1711104601";"229";"7";"15";"148";"62";"338";"0";"0";"0";"155";"0";"10005"
"22.03.2024, 10:00";"1711105201";"224";"8";"15";"149";"63";"464";"6";"0";"0";"158";"0";"10000"
"22.03.2024, 10:10";"1711105801";"232";"8";"16";"151";"63";"553";"10";"0";"0";"166";"0";"10000"
"22.03.2024, 10:20";"1711106401";"218";"7";"15";"150";"61";"688";"9";"0";"0";"154";"0";"10000"
"22.03.2024, 10:30";"1711107001";"210";"8";"20";"151";"62";"388";"2";"0";"0";"153";"0";"10000"
"22.03.2024, 10:40";"1711107601";"247";"7";"16";"148";"64";"163";"0";"0";"0";"148";"0";"10000"
"22.03.2024, 10:50";"1711108201";"227";"7";"14";"145";"63";"104";"0";"2";"0";"141";"0";"10000"
"22.03.2024, 11:00";"1711108801";"234";"8";"16";"143";"64";"85";"0";"1";"0";"137";"0";"9998"
"22.03.2024, 11:10";"1711109401";"232";"7";"13";"140";"67";"49";"0";"0";"0";"133";"0";"9998"
"22.03.2024, 11:20";"1711110001";"239";"7";"16";"137";"67";"55";"0";"1";"0";"131";"0";"9998"
"22.03.2024, 11:30";"1711110601";"241";"8";"16";"135";"70";"45";"0";"0";"0";"130";"0";"9998"
"22.03.2024, 11:40";"1711111202";"256";"9";"19";"130";"75";"78";"0";"7";"0";"122";"0";"9998"
"22.03.2024, 11:50";"1711111801";"262";"7";"13";"128";"74";"49";"0";"5";"0";"125";"0";"9998"
"22.03.2024, 12:00";"1711112401";"253";"6";"12";"127";"74";"46";"0";"0";"0";"126";"0";"9994"
"22.03.2024, 12:10";"1711113001";"273";"5";"9";"127";"74";"41";"0";"0";"0";"128";"0";"9994"
"22.03.2024, 12:20";"1711113601";"278";"6";"12";"125";"74";"39";"0";"0";"0";"123";"0";"9994"
"22.03.2024, 12:30";"1711114201";"269";"7";"13";"124";"75";"29";"0";"0";"0";"121";"0";"9994"
"22.03.2024, 12:40";"1711114801";"265";"6";"12";"124";"74";"32";"0";"0";"0";"123";"0";"9994"
"22.03.2024, 12:50";"1711115401";"254";"5";"13";"124";"73";"38";"0";"0";"0";"125";"0";"9994"
"22.03.2024, 13:00";"1711116001";"246";"6";"14";"124";"73";"52";"0";"0";"0";"124";"0";"9984"
"22.03.2024, 13:10";"1711116601";"268";"7";"13";"123";"74";"42";"0";"0";"0";"122";"0";"9984"
"22.03.2024, 13:20";"1711117201";"259";"6";"13";"122";"74";"22";"0";"0";"0";"119";"0";"9984"
"22.03.2024, 13:30";"1711117801";"229";"6";"15";"122";"74";"19";"0";"0";"0";"120";"0";"9984"
"22.03.2024, 13:40";"1711118401";"248";"7";"13";"120";"75";"12";"0";"0";"0";"116";"0";"9984"
"22.03.2024, 13:50";"1711119001";"228";"8";"16";"119";"76";"18";"0";"0";"0";"116";"0";"9984"
"22.03.2024, 14:00";"1711119602";"247";"6";"12";"119";"76";"10";"0";"0";"0";"117";"0";"9982"
"22.03.2024, 14:10";"1711120201";"260";"7";"15";"117";"78";"17";"0";"0";"0";"114";"0";"9982"
"22.03.2024, 14:20";"1711120801";"245";"6";"12";"117";"78";"19";"0";"0";"0";"115";"0";"9982"
"22.03.2024, 14:30";"1711121401";"265";"6";"13";"117";"79";"34";"0";"0";"0";"117";"0";"9982"
"22.03.2024, 14:40";"1711122001";"267";"5";"10";"116";"80";"38";"0";"0";"0";"116";"0";"9982"
"22.03.2024, 14:50";"1711122602";"260";"4";"8";"116";"80";"19";"0";"0";"0";"114";"0";"9982"
"22.03.2024, 15:00";"1711123201";"237";"4";"10";"116";"80";"15";"0";"0";"0";"113";"0";"9977"
"22.03.2024, 15:10";"1711123801";"228";"6";"12";"115";"81";"7";"0";"0";"0";"111";"0";"9977"
"22.03.2024, 15:20";"1711124401";"258";"6";"14";"114";"81";"8";"0";"3";"0";"110";"0";"9977"
"22.03.2024, 15:30";"1711125001";"238";"6";"13";"113";"82";"7";"0";"0";"0";"110";"0";"9977"
"22.03.2024, 15:40";"1711125601";"275";"4";"8";"112";"84";"6";"0";"5";"0";"105";"0";"9977"
"22.03.2024, 15:50";"1711126201";"232";"6";"12";"110";"85";"6";"0";"10";"0";"101";"0";"9977"
"22.03.2024, 16:00";"1711126801";"240";"6";"11";"110";"87";"6";"0";"10";"0";"101";"0";"9970"
"22.03.2024, 16:10";"1711127401";"221";"4";"10";"108";"87";"7";"0";"10";"0";"99";"0";"9970"
"22.03.2024, 16:20";"1711128001";"229";"4";"9";"107";"88";"6";"0";"10";"0";"99";"0";"9970"
"22.03.2024, 16:30";"1711128601";"220";"5";"12";"106";"88";"7";"0";"10";"0";"98";"0";"9970"
"22.03.2024, 16:40";"1711129201";"222";"5";"9";"105";"89";"7";"0";"10";"0";"97";"0";"9970"
"22.03.2024, 16:50";"1711129802";"226";"4";"8";"105";"90";"6";"0";"10";"0";"98";"0";"9970"
"22.03.2024, 17:00";"1711130401";"219";"3";"8";"104";"91";"7";"0";"10";"0";"98";"0";"9968"
"22.03.2024, 17:10";"1711131001";"282";"5";"9";"102";"91";"5";"0";"10";"0";"95";"0";"9968"
"22.03.2024, 17:20";"1711131601";"299";"4";"8";"99";"91";"5";"0";"10";"0";"93";"0";"9968"
"22.03.2024, 17:30";"1711132201";"320";"6";"12";"96";"90";"4";"0";"10";"0";"88";"0";"9968"
"22.03.2024, 17:40";"1711132801";"322";"6";"13";"93";"91";"4";"0";"10";"0";"86";"0";"9968"
"22.03.2024, 17:50";"1711133401";"298";"3";"7";"92";"91";"5";"0";"10";"0";"87";"0";"9968"
"22.03.2024, 18:00";"1711134001";"312";"2";"5";"93";"91";"5";"0";"10";"0";"88";"0";"9968"